Flag for U.S.A. Weather past 2 weeks in Prudhoe Bay, Alaska, U.S.A.

Now
32 °F

Low clouds.


Feels Like: 21 °F
Forecast: 33 / 38 °F
Wind: 17 mph from Northeast

Location: Deadhorse Airport

Current Time: May 29, 2015 at 3:37:35 AM

Latest Report: May 29, 2015 at 2:53 AM


Visibility: 10 mi

Pressure: 30.23 "Hg

Humidity: 85%

Dew point: 28 °F

Location of Prudhoe BayLocation

Historic Weather in Prudhoe Bay — Graph

°F

Prudhoe Bay temperature yesterday

Maximum temperature yesterday: 38 °F (at 3:53 PM)
Minimum temperature yesterday: 30 °F (at 2:53 AM)
Average temperature yesterday: 33 °F

Past Weeks' High & Low Weather Summary

 TemperatureHumidityPressure
High50 °F (May 18, 4:53 PM)97% (May 21, 9:53 AM)30.31 "Hg (May 21, 9:53 AM)
Low27 °F (May 14, 11:53 PM)59% (May 17, 2:53 PM)29.73 "Hg (May 15, 9:53 PM)
Average36 °F84%30.06 "Hg
* Reported May 14 1:53 AM — May 29 1:53 AM, Prudhoe Bay, Weather by CustomWeather, © 2015

Note: Actual official high and low records may vary slightly from our data, if they occured in-between our weather recording intervals... More about our weather records

Advertising

Prudhoe Bay weather history for previous 24 hours

 ConditionsComfort  
Time TempWeatherWind HumidityBarometerVisibility
1:53 AM
Fri, May 29
33 °FLow clouds.15 mph82%30.24 "Hg10 mi
12:53 AM33 °FMostly cloudy.15 mph85%30.24 "Hg10 mi
11:53 PM
Thu, May 28
33 °FBroken clouds.21 mph85%30.24 "Hg10 mi
11:04 PM33 °FBroken clouds.20 mph88%30.23 "Hg10 mi
10:53 PM33 °FPartly sunny.22 mph88%30.22 "Hg10 mi
9:53 PM32 °FIce fog.23 mph88%30.22 "Hg2 mi
8:53 PM34 °FLow clouds.18 mph85%30.25 "Hg10 mi
7:53 PM34 °FLow clouds.22 mph85%30.24 "Hg10 mi
6:53 PM36 °FPartly sunny.24 mph82%30.24 "Hg10 mi
5:53 PM36 °FPartly sunny.21 mph82%30.26 "Hg10 mi
5:00 PM37 °FPartly sunny.22 mph82%30.26 "Hg10 mi
3:53 PM38 °FScattered clouds.21 mph79%30.27 "Hg10 mi
2:53 PM37 °FScattered clouds.21 mph79%30.27 "Hg10 mi
1:53 PM37 °FPartly sunny.20 mph79%30.28 "Hg10 mi
12:53 PM37 °FScattered clouds.18 mph79%30.28 "Hg10 mi
11:53 AM37 °FScattered clouds.16 mph79%30.28 "Hg10 mi
10:53 AM35 °FScattered clouds.15 mph82%30.28 "Hg10 mi
9:53 AM33 °FScattered clouds.12 mph88%30.30 "Hg10 mi
8:53 AM32 °FIce fog.10 mph92%30.30 "Hg6 mi
7:53 AM31 °FIce fog.10 mph92%30.31 "Hg1 mi
6:53 AM30 °FIce fog.10 mph92%30.31 "Hg1 mi
5:53 AM30 °FIce fog.10 mph92%30.31 "Hg0 mi
4:53 AM30 °FIce fog.8 mph92%30.31 "Hg0 mi
3:53 AM30 °FIce fog.8 mph92%30.31 "Hg0 mi
Weather by CustomWeather, © 2015

See weather overviewHow to use our weather pages